Time,TemperatureF,DewpointF,PressureIn,WindDirection,WindDirectionDegrees,WindSpeedMPH,WindSpeedGustMPH,Humidity,HourlyPrecipIn,Conditions,Clouds,dailyrainin,SoftwareType,DateUTC
2013-04-23 00:00:00,54.1,32.7,29.82,SW,224,11.4,19.1,44,0.00,,CLR,0.00,VWS V14.00,2013-04-23 07:00:00,
2013-04-23 00:05:00,54.1,33.3,29.82,SW,227,13.1,13.1,45,0.00,,CLR,0.00,VWS V14.00,2013-04-23 07:05:00,
2013-04-23 00:10:00,54.1,34.9,29.82,SW,219,6.0,15.8,48,0.00,,CLR,0.00,VWS V14.00,2013-04-23 07:10:00,
2013-04-23 00:15:00,54.1,35.4,29.82,SSW,203,11.4,15.8,49,0.00,,CLR,0.00,VWS V14.00,2013-04-23 07:15:00,
2013-04-23 00:20:00,54.0,35.8,29.82,SW,221,12.4,16.4,50,0.00,,CLR,0.00,VWS V14.00,2013-04-23 07:20:00,
2013-04-23 00:25:00,54.0,35.8,29.82,SW,220,9.4,16.4,50,0.00,,CLR,0.00,VWS V14.00,2013-04-23 07:25:00,
2013-04-23 00:30:00,54.0,35.8,29.82,SW,226,15.1,16.4,50,0.00,,CLR,0.00,VWS V14.00,2013-04-23 07:30:00,
2013-04-23 00:35:00,54.0,35.8,29.82,SW,234,12.4,15.1,50,0.00,,CLR,0.00,VWS V14.00,2013-04-23 07:35:00,
2013-04-23 00:40:00,54.0,35.8,29.82,SSW,209,8.7,15.1,50,0.00,,CLR,0.00,VWS V14.00,2013-04-23 07:40:00,
2013-04-23 00:45:00,54.0,35.2,29.82,SSW,209,5.4,15.1,49,0.00,,CLR,0.00,VWS V14.00,2013-04-23 07:45:00,
2013-04-23 00:50:00,54.0,35.2,29.82,SSE,164,4.7,15.1,49,0.00,,CLR,0.00,VWS V14.00,2013-04-23 07:50:00,
2013-04-23 00:55:00,54.0,34.7,29.82,SW,218,5.4,15.1,48,0.00,,CLR,0.00,VWS V14.00,2013-04-23 07:55:00,
2013-04-23 01:00:00,54.0,34.7,29.82,SW,216,6.0,15.1,48,0.00,,CLR,0.00,VWS V14.00,2013-04-23 08:00:00,
2013-04-23 01:05:00,54.1,35.4,29.82,SSW,207,8.1,13.1,49,0.00,,CLR,0.00,VWS V14.00,2013-04-23 08:05:00,
2013-04-23 01:10:00,54.3,35.1,29.82,SSW,213,9.4,15.1,48,0.00,,CLR,0.00,VWS V14.00,2013-04-23 08:10:00,
2013-04-23 01:15:00,54.3,35.1,29.82,SSW,202,11.4,16.4,48,0.00,,CLR,0.00,VWS V14.00,2013-04-23 08:15:00,
2013-04-23 01:20:00,54.3,35.1,29.82,SW,219,7.4,16.4,48,0.00,,CLR,0.00,VWS V14.00,2013-04-23 08:20:00,
2013-04-23 01:25:00,54.1,34.9,29.82,SSW,202,12.4,16.4,48,0.00,,CLR,0.00,VWS V14.00,2013-04-23 08:25:00,
2013-04-23 01:30:00,54.0,34.2,29.82,WSW,237,12.4,18.5,47,0.00,,CLR,0.00,VWS V14.00,2013-04-23 08:30:00,
2013-04-23 01:35:00,54.0,34.2,29.82,SW,231,12.4,18.5,47,0.00,,CLR,0.00,VWS V14.00,2013-04-23 08:35:00,
2013-04-23 01:40:00,54.1,33.8,29.82,SW,214,6.0,18.5,46,0.00,,CLR,0.00,VWS V14.00,2013-04-23 08:40:00,
2013-04-23 01:45:00,54.1,32.7,29.82,SW,221,12.4,18.5,44,0.00,,CLR,0.00,VWS V14.00,2013-04-23 08:45:00,
2013-04-23 01:50:00,54.3,32.3,29.82,SSW,208,12.4,18.5,43,0.00,,CLR,0.00,VWS V14.00,2013-04-23 08:50:00,
2013-04-23 01:55:00,54.7,32.1,29.79,SSW,213,13.1,18.5,42,0.00,,CLR,0.00,VWS V14.00,2013-04-23 08:55:00,
2013-04-23 02:00:00,54.9,31.0,29.79,WSW,243,15.1,18.5,40,0.00,,CLR,0.00,VWS V14.00,2013-04-23 09:00:00,
2013-04-23 02:05:00,54.9,31.0,29.79,SW,220,12.1,13.8,40,0.00,,CLR,0.00,VWS V14.00,2013-04-23 09:05:00,
2013-04-23 02:10:00,54.9,31.0,29.79,SW,220,10.7,16.4,40,0.00,,CLR,0.00,VWS V14.00,2013-04-23 09:10:00,
2013-04-23 02:15:00,54.9,31.0,29.79,SSW,208,9.4,16.4,40,0.00,,CLR,0.00,VWS V14.00,2013-04-23 09:15:00,
2013-04-23 02:20:00,54.9,31.0,29.79,SW,222,9.4,16.4,40,0.00,,CLR,0.00,VWS V14.00,2013-04-23 09:20:00,
2013-04-23 02:25:00,54.9,31.0,29.79,South,186,8.1,16.4,40,0.00,,CLR,0.00,VWS V14.00,2013-04-23 09:25:00,
2013-04-23 02:30:00,54.5,30.7,29.79,SE,138,5.4,16.4,40,0.00,,CLR,0.00,VWS V14.00,2013-04-23 09:30:00,
2013-04-23 02:35:00,54.1,30.4,29.79,SW,222,5.4,7.4,40,0.00,,CLR,0.00,VWS V14.00,2013-04-23 09:35:00,
2013-04-23 02:40:00,53.8,30.0,29.79,SW,220,4.7,7.4,40,0.00,,CLR,0.00,VWS V14.00,2013-04-23 09:40:00,
2013-04-23 02:45:00,53.4,30.3,29.79,SW,230,12.1,12.1,41,0.00,,CLR,0.00,VWS V14.00,2013-04-23 09:45:00,
2013-04-23 02:50:00,53.4,30.3,29.79,SW,221,3.4,12.1,41,0.00,,CLR,0.00,VWS V14.00,2013-04-23 09:50:00,
2013-04-23 02:55:00,53.2,30.2,29.79,South,191,4.0,12.1,41,0.00,,CLR,0.00,VWS V14.00,2013-04-23 09:55:00,
2013-04-23 03:00:00,52.9,29.8,29.79,SW,230,5.4,12.1,41,0.00,,CLR,0.00,VWS V14.00,2013-04-23 10:00:00,
2013-04-23 03:05:00,52.9,30.4,29.79,SW,230,6.0,8.7,42,0.00,,CLR,0.00,VWS V14.00,2013-04-23 10:05:00,
2013-04-23 03:10:00,52.9,30.4,29.82,SW,227,5.4,9.4,42,0.00,,CLR,0.00,VWS V14.00,2013-04-23 10:10:00,
2013-04-23 03:15:00,52.9,30.4,29.82,SW,220,4.7,9.4,42,0.00,,CLR,0.00,VWS V14.00,2013-04-23 10:15:00,
2013-04-23 03:20:00,52.7,30.9,29.82,SSW,205,8.1,9.4,43,0.00,,CLR,0.00,VWS V14.00,2013-04-23 10:20:00,
2013-04-23 03:25:00,52.7,31.4,29.82,SW,216,8.7,12.4,44,0.00,,CLR,0.00,VWS V14.00,2013-04-23 10:25:00,
2013-04-23 03:30:00,52.9,31.6,29.82,South,191,6.0,12.4,44,0.00,,CLR,0.00,VWS V14.00,2013-04-23 10:30:00,
2013-04-23 03:35:00,52.9,32.7,29.82,SW,221,8.1,13.1,46,0.00,,CLR,0.00,VWS V14.00,2013-04-23 10:35:00,
2013-04-23 03:40:00,53.1,32.8,29.82,SW,222,12.1,13.1,46,0.00,,CLR,0.00,VWS V14.00,2013-04-23 10:40:00,
2013-04-23 03:45:00,53.1,32.3,29.82,SSW,205,8.7,13.1,45,0.00,,CLR,0.00,VWS V14.00,2013-04-23 10:45:00,
2013-04-23 03:50:00,53.1,32.3,29.82,SW,221,8.1,13.1,45,0.00,,CLR,0.00,VWS V14.00,2013-04-23 10:50:00,
2013-04-23 03:55:00,53.2,31.9,29.82,SSW,195,4.0,13.1,44,0.00,,CLR,0.00,VWS V14.00,2013-04-23 10:55:00,
2013-04-23 04:00:00,52.9,31.6,29.82,SSE,166,5.4,13.1,44,0.00,,CLR,0.00,VWS V14.00,2013-04-23 11:00:00,
2013-04-23 04:05:00,52.5,30.7,29.82,SSE,168,0.0,4.7,43,0.00,,CLR,0.00,VWS V14.00,2013-04-23 11:05:00,
2013-04-23 04:10:00,52.0,30.8,29.82,South,172,5.4,6.0,44,0.00,,CLR,0.00,VWS V14.00,2013-04-23 11:10:00,
2013-04-23 04:15:00,51.6,31.5,29.82,South,172,4.7,6.0,46,0.00,,CLR,0.00,VWS V14.00,2013-04-23 11:15:00,
2013-04-23 04:20:00,51.3,31.2,29.82,South,172,4.7,6.0,46,0.00,,CLR,0.00,VWS V14.00,2013-04-23 11:20:00,
2013-04-23 04:25:00,51.3,31.7,29.82,SW,218,3.4,6.0,47,0.00,,CLR,0.00,VWS V14.00,2013-04-23 11:25:00,
2013-04-23 04:30:00,51.1,31.6,29.82,SW,218,0.0,6.0,47,0.00,,CLR,0.00,VWS V14.00,2013-04-23 11:30:00,
2013-04-23 04:35:00,50.7,31.2,29.82,SW,218,4.7,4.7,47,0.00,,CLR,0.00,VWS V14.00,2013-04-23 11:35:00,
2013-04-23 04:40:00,50.5,31.1,29.85,SW,218,4.0,5.4,47,0.00,,CLR,0.00,VWS V14.00,2013-04-23 11:40:00,
2013-04-23 04:45:00,50.4,30.9,29.85,SW,218,4.0,5.4,47,0.00,,CLR,0.00,VWS V14.00,2013-04-23 11:45:00,
2013-04-23 04:50:00,50.2,31.3,29.85,SW,218,5.4,5.4,48,0.00,,CLR,0.00,VWS V14.00,2013-04-23 11:50:00,
2013-04-23 04:55:00,50.2,31.3,29.85,SW,218,0.0,5.4,48,0.00,,CLR,0.00,VWS V14.00,2013-04-23 11:55:00,
2013-04-23 05:00:00,49.8,30.9,29.85,SW,218,0.0,6.0,48,0.00,,CLR,0.00,VWS V14.00,2013-04-23 12:00:00,
2013-04-23 05:05:00,49.6,30.8,29.85,SW,234,4.0,6.0,48,0.00,,CLR,0.00,VWS V14.00,2013-04-23 12:05:00,
2013-04-23 05:10:00,49.5,30.6,29.85,SW,233,5.4,6.0,48,0.00,,CLR,0.00,VWS V14.00,2013-04-23 12:10:00,
2013-04-23 05:15:00,49.5,30.6,29.85,SW,233,4.7,6.0,48,0.00,,CLR,0.00,VWS V14.00,2013-04-23 12:15:00,
2013-04-23 05:20:00,49.3,30.4,29.85,SW,233,0.0,6.0,48,0.00,,CLR,0.00,VWS V14.00,2013-04-23 12:20:00,
2013-04-23 05:25:00,49.1,30.3,29.85,SW,233,0.0,6.0,48,0.00,,CLR,0.00,VWS V14.00,2013-04-23 12:25:00,
2013-04-23 05:30:00,48.6,29.8,29.85,SW,234,4.0,6.0,48,0.00,,CLR,0.00,VWS V14.00,2013-04-23 12:30:00,
2013-04-23 05:35:00,48.4,29.6,29.85,WSW,255,5.4,8.1,48,0.00,,CLR,0.00,VWS V14.00,2013-04-23 12:35:00,
2013-04-23 05:40:00,48.0,29.8,29.85,WSW,255,4.0,8.1,49,0.00,,CLR,0.00,VWS V14.00,2013-04-23 12:40:00,
2013-04-23 05:45:00,48.0,29.8,29.85,WSW,255,5.4,8.1,49,0.00,,CLR,0.00,VWS V14.00,2013-04-23 12:45:00,
2013-04-23 05:50:00,48.2,29.5,29.85,WSW,255,4.0,8.1,48,0.00,,CLR,0.00,VWS V14.00,2013-04-23 12:50:00,
2013-04-23 05:55:00,48.4,29.6,29.88,WSW,255,0.0,8.1,48,0.00,,CLR,0.00,VWS V14.00,2013-04-23 12:55:00,
2013-04-23 06:00:00,48.6,29.8,29.88,WSW,255,4.7,8.1,48,0.00,,CLR,0.00,VWS V14.00,2013-04-23 13:00:00,
2013-04-23 06:05:00,48.7,29.9,29.88,WSW,255,4.0,6.0,48,0.00,,CLR,0.00,VWS V14.00,2013-04-23 13:05:00,
2013-04-23 06:10:00,48.9,30.1,29.88,WSW,255,0.0,6.0,48,0.00,,CLR,0.00,VWS V14.00,2013-04-23 13:10:00,
2013-04-23 06:15:00,49.1,30.3,29.88,WSW,255,4.0,6.0,48,0.00,,CLR,0.00,VWS V14.00,2013-04-23 13:15:00,
2013-04-23 06:20:00,49.5,30.1,29.88,WSW,255,4.0,6.0,47,0.00,,CLR,0.00,VWS V14.00,2013-04-23 13:20:00,
2013-04-23 06:25:00,49.6,30.2,29.88,WSW,255,0.0,6.0,47,0.00,,CLR,0.00,VWS V14.00,2013-04-23 13:25:00,
2013-04-23 06:30:00,49.8,30.4,29.88,WSW,257,4.0,6.0,47,0.00,,CLR,0.00,VWS V14.00,2013-04-23 13:30:00,
2013-04-23 06:35:00,50.0,30.0,29.88,WNW,282,4.7,6.0,46,0.00,,CLR,0.00,VWS V14.00,2013-04-23 13:35:00,
2013-04-23 06:40:00,50.5,30.0,29.88,WNW,289,4.7,8.1,45,0.00,,CLR,0.00,VWS V14.00,2013-04-23 13:40:00,
2013-04-23 06:45:00,51.8,28.9,29.88,North,350,8.1,8.7,41,0.00,,CLR,0.00,VWS V14.00,2013-04-23 13:45:00,
2013-04-23 06:50:00,53.2,28.9,29.88,NW,310,4.0,8.7,39,0.00,,CLR,0.00,VWS V14.00,2013-04-23 13:50:00,
2013-04-23 06:55:00,54.7,28.9,29.91,NW,315,7.4,9.4,37,0.00,,CLR,0.00,VWS V14.00,2013-04-23 13:55:00,
2013-04-23 07:01:00,55.9,28.7,29.91,WNW,285,6.0,9.4,35,0.00,,CLR,0.00,VWS V14.00,2013-04-23 14:01:00,
2013-04-23 07:05:00,57.0,29.0,29.91,NW,310,5.4,9.4,34,0.00,,CLR,0.00,VWS V14.00,2013-04-23 14:05:00,
2013-04-23 07:11:00,57.9,27.5,29.91,NNW,334,10.1,12.1,31,0.00,,CLR,0.00,VWS V14.00,2013-04-23 14:11:00,
2013-04-23 07:16:00,58.8,26.6,29.91,NW,318,7.4,12.1,29,0.00,,CLR,0.00,VWS V14.00,2013-04-23 14:16:00,
2013-04-23 07:21:00,59.5,26.4,29.91,NW,315,8.1,12.1,28,0.00,,CLR,0.00,VWS V14.00,2013-04-23 14:21:00,
2013-04-23 07:26:00,60.3,26.2,29.91,WNW,300,8.7,12.1,27,0.00,,CLR,0.00,VWS V14.00,2013-04-23 14:26:00,
2013-04-23 07:31:00,60.8,25.7,29.91,NNW,337,4.7,14.4,26,0.00,,CLR,0.00,VWS V14.00,2013-04-23 14:31:00,
2013-04-23 07:36:00,61.5,25.4,29.91,NW,318,7.4,15.1,25,0.00,,CLR,0.00,VWS V14.00,2013-04-23 14:36:00,
2013-04-23 07:41:00,61.9,25.7,29.91,NW,324,9.4,15.1,25,0.00,,CLR,0.00,VWS V14.00,2013-04-23 14:41:00,
2013-04-23 07:46:00,62.4,26.2,29.91,NW,322,5.4,15.1,25,0.00,,CLR,0.00,VWS V14.00,2013-04-23 14:46:00,
2013-04-23 07:51:00,62.8,25.5,29.91,NNW,328,15.1,15.1,24,0.00,,CLR,0.00,VWS V14.00,2013-04-23 14:51:00,
2013-04-23 07:56:00,63.0,25.6,29.91,North,353,8.1,15.1,24,0.00,,CLR,0.00,VWS V14.00,2013-04-23 14:56:00,
2013-04-23 08:01:00,63.3,25.9,29.91,NNW,344,11.4,15.1,24,0.00,,CLR,0.00,VWS V14.00,2013-04-23 15:01:00,
2013-04-23 08:06:00,63.9,26.4,29.91,North,6,8.7,13.8,24,0.00,,CLR,0.00,VWS V14.00,2013-04-23 15:06:00,
2013-04-23 08:11:00,64.2,26.7,29.91,NNE,14,11.4,13.8,24,0.00,,CLR,0.00,VWS V14.00,2013-04-23 15:11:00,
2013-04-23 08:16:00,64.4,25.8,29.91,North,11,8.1,13.8,23,0.00,,CLR,0.00,VWS V14.00,2013-04-23 15:16:00,
2013-04-23 08:21:00,64.8,26.1,29.91,North,6,8.7,16.4,23,0.00,,CLR,0.00,VWS V14.00,2013-04-23 15:21:00,
2013-04-23 08:26:00,64.9,22.9,29.94,NNE,13,11.4,16.4,20,0.00,,CLR,0.00,VWS V14.00,2013-04-23 15:26:00,
2013-04-23 08:31:00,64.9,22.9,29.94,NNE,22,13.1,16.4,20,0.00,,CLR,0.00,VWS V14.00,2013-04-23 15:31:00,
2013-04-23 08:36:00,64.9,22.9,29.94,NNE,20,9.4,15.1,20,0.00,,CLR,0.00,VWS V14.00,2013-04-23 15:36:00,
2013-04-23 08:41:00,65.3,23.2,29.94,NNE,15,8.7,15.1,20,0.00,,CLR,0.00,VWS V14.00,2013-04-23 15:41:00,
2013-04-23 08:46:00,65.7,23.5,29.94,North,6,13.1,15.1,20,0.00,,CLR,0.00,VWS V14.00,2013-04-23 15:46:00,
2013-04-23 08:51:00,66.0,23.8,29.94,North,7,12.4,15.1,20,0.00,,CLR,0.00,VWS V14.00,2013-04-23 15:51:00,
2013-04-23 08:56:00,66.2,24.0,29.94,North,357,7.4,15.1,20,0.00,,CLR,0.00,VWS V14.00,2013-04-23 15:56:00,
2013-04-23 09:01:00,66.7,20.6,29.94,NNE,30,8.1,15.1,17,0.00,,CLR,0.00,VWS V14.00,2013-04-23 16:01:00,
2013-04-23 09:06:00,67.3,21.0,29.94,NNE,14,12.1,15.8,17,0.00,,SCT090,0.00,VWS V14.00,2013-04-23 16:06:00,
2013-04-23 09:11:00,67.6,21.3,29.94,NNE,32,14.4,15.8,17,0.00,,SCT090,0.00,VWS V14.00,2013-04-23 16:11:00,
2013-04-23 09:16:00,67.6,21.3,29.94,NE,36,8.7,15.8,17,0.00,,SCT090,0.00,VWS V14.00,2013-04-23 16:16:00,
2013-04-23 09:21:00,67.8,21.5,29.94,North,9,8.1,15.8,17,0.00,,SCT090,0.00,VWS V14.00,2013-04-23 16:21:00,
2013-04-23 09:26:00,68.4,21.9,29.94,NNE,25,8.1,15.8,17,0.00,,SCT090,0.00,VWS V14.00,2013-04-23 16:26:00,
2013-04-23 09:31:00,68.7,22.2,29.94,NE,41,9.4,16.4,17,0.00,,SCT090,0.00,VWS V14.00,2013-04-23 16:31:00,
2013-04-23 09:36:00,68.7,22.2,29.94,North,8,7.4,13.1,17,0.00,,SCT090,0.00,VWS V14.00,2013-04-23 16:36:00,
2013-04-23 09:41:00,68.7,22.2,29.94,ENE,77,6.7,15.8,17,0.00,,SCT090,0.00,VWS V14.00,2013-04-23 16:41:00,
2013-04-23 09:46:00,68.9,22.3,29.94,NNE,18,6.0,15.8,17,0.00,,SCT090,0.00,VWS V14.00,2013-04-23 16:46:00,
2013-04-23 09:51:00,69.3,22.6,29.94,NNE,20,8.7,16.4,17,0.00,,SCT090,0.00,VWS V14.00,2013-04-23 16:51:00,
2013-04-23 09:56:00,69.8,23.1,29.94,NE,39,8.1,16.4,17,0.00,,SCT090,0.00,VWS V14.00,2013-04-23 16:56:00,
2013-04-23 10:01:00,69.8,23.1,29.94,NNE,28,16.4,16.4,17,0.00,,SCT090,0.00,VWS V14.00,2013-04-23 17:01:00,
2013-04-23 10:06:00,69.6,22.9,29.94,NNE,29,9.4,15.1,17,0.00,,SCT110,0.00,VWS V14.00,2013-04-23 17:06:00,
2013-04-23 10:11:00,69.8,23.1,29.94,ESE,113,12.1,18.5,17,0.00,,SCT110,0.00,VWS V14.00,2013-04-23 17:11:00,
2013-04-23 10:16:00,70.7,23.8,29.94,NNE,27,6.0,18.5,17,0.00,,SCT110,0.00,VWS V14.00,2013-04-23 17:16:00,
2013-04-23 10:21:00,70.7,23.8,29.94,ENE,77,11.4,23.2,17,0.00,,SCT110,0.00,VWS V14.00,2013-04-23 17:21:00,
2013-04-23 10:26:00,70.3,23.5,29.94,NE,36,12.4,25.5,17,0.00,,SCT110,0.00,VWS V14.00,2013-04-23 17:26:00,
2013-04-23 10:31:00,69.8,23.1,29.94,NNE,20,15.8,25.5,17,0.00,,SCT110,0.00,VWS V14.00,2013-04-23 17:31:00,
2013-04-23 10:36:00,70.0,23.2,29.94,NE,39,15.1,23.2,17,0.00,,SCT110,0.00,VWS V14.00,2013-04-23 17:36:00,
2013-04-23 10:41:00,70.3,23.5,29.94,NE,42,15.8,23.2,17,0.00,,SCT110,0.00,VWS V14.00,2013-04-23 17:41:00,
2013-04-23 10:46:00,70.7,23.8,29.94,ENE,57,23.2,23.2,17,0.00,,SCT110,0.00,VWS V14.00,2013-04-23 17:46:00,
2013-04-23 10:51:00,70.3,23.5,29.94,NNE,30,8.1,23.2,17,0.00,,SCT110,0.00,VWS V14.00,2013-04-23 17:51:00,
2013-04-23 10:56:00,70.7,23.8,29.94,North,0,12.1,23.2,17,0.00,,SCT110,0.00,VWS V14.00,2013-04-23 17:56:00,
2013-04-23 11:01:00,70.7,23.8,29.94,NNE,30,12.1,23.2,17,0.00,,SCT110,0.00,VWS V14.00,2013-04-23 18:01:00,
2013-04-23 11:06:00,71.1,24.1,29.94,NNE,18,15.1,18.5,17,0.00,,SCT100,0.00,VWS V14.00,2013-04-23 18:06:00,
2013-04-23 11:11:00,71.1,24.1,29.94,North,0,19.1,25.5,17,0.00,,SCT100,0.00,VWS V14.00,2013-04-23 18:11:00,
2013-04-23 11:16:00,71.1,24.1,29.94,NNE,17,14.4,25.5,17,0.00,,SCT100,0.00,VWS V14.00,2013-04-23 18:16:00,
2013-04-23 11:21:00,71.1,24.1,29.94,NE,48,23.2,25.5,17,0.00,,SCT100,0.00,VWS V14.00,2013-04-23 18:21:00,
2013-04-23 11:26:00,71.6,23.1,29.94,NNE,23,16.4,25.5,16,0.00,,SCT100,0.00,VWS V14.00,2013-04-23 18:26:00,
2013-04-23 11:31:00,72.1,23.5,29.94,North,0,12.1,26.2,16,0.00,,SCT100,0.00,VWS V14.00,2013-04-23 18:31:00,
2013-04-23 11:36:00,72.3,23.6,29.94,North,0,15.1,19.8,16,0.00,,SCT100,0.00,VWS V14.00,2013-04-23 18:36:00,
2013-04-23 11:41:00,72.1,23.5,29.94,NE,41,15.8,23.2,16,0.00,,SCT100,0.00,VWS V14.00,2013-04-23 18:41:00,
2013-04-23 11:46:00,72.3,23.6,29.94,NNE,28,13.1,23.2,16,0.00,,SCT100,0.00,VWS V14.00,2013-04-23 18:46:00,
2013-04-23 11:51:00,72.7,23.9,29.94,NNE,32,14.4,23.2,16,0.00,,SCT100,0.00,VWS V14.00,2013-04-23 18:51:00,
2013-04-23 11:56:00,72.5,23.8,29.94,NE,38,13.1,23.2,16,0.00,,SCT100,0.00,VWS V14.00,2013-04-23 18:56:00,
2013-04-23 12:01:00,72.5,23.8,29.94,NNE,33,10.7,23.2,16,0.00,,SCT100,0.00,VWS V14.00,2013-04-23 19:01:00,
2013-04-23 12:06:00,72.7,23.9,29.94,North,10,12.1,23.2,16,0.00,,SCT100,0.00,VWS V14.00,2013-04-23 19:06:00,
2013-04-23 12:11:00,72.9,24.1,29.94,NNE,27,15.8,23.2,16,0.00,,SCT100,0.00,VWS V14.00,2013-04-23 19:11:00,
2013-04-23 12:16:00,73.4,24.5,29.94,North,4,15.1,23.8,16,0.00,,SCT100,0.00,VWS V14.00,2013-04-23 19:16:00,
2013-04-23 12:21:00,73.8,24.8,29.94,NNE,17,5.4,23.8,16,0.00,,SCT100,0.00,VWS V14.00,2013-04-23 19:21:00,
2013-04-23 12:26:00,73.2,24.4,29.91,NE,34,8.7,23.8,16,0.00,,SCT100,0.00,VWS V14.00,2013-04-23 19:26:00,
2013-04-23 12:31:00,73.6,24.7,29.91,ENE,68,9.4,23.8,16,0.00,,SCT100,0.00,VWS V14.00,2013-04-23 19:31:00,
2013-04-23 12:36:00,73.4,24.5,29.91,North,5,8.7,24.5,16,0.00,,SCT100,0.00,VWS V14.00,2013-04-23 19:36:00,
2013-04-23 12:41:00,73.4,24.5,29.91,ENE,69,18.5,24.5,16,0.00,,SCT100,0.00,VWS V14.00,2013-04-23 19:41:00,
2013-04-23 12:46:00,73.6,24.7,29.91,NNE,23,8.1,24.5,16,0.00,,SCT100,0.00,VWS V14.00,2013-04-23 19:46:00,
2013-04-23 12:51:00,73.9,25.0,29.91,North,5,20.5,24.5,16,0.00,,SCT100,0.00,VWS V14.00,2013-04-23 19:51:00,
2013-04-23 12:56:00,74.1,25.1,29.91,North,2,21.8,24.5,16,0.00,,SCT100,0.00,VWS V14.00,2013-04-23 19:56:00,
2013-04-23 13:01:00,74.7,25.5,29.91,East,89,19.1,24.5,16,0.00,,SCT100,0.00,VWS V14.00,2013-04-23 20:01:00,
2013-04-23 13:06:00,75.0,25.8,29.91,NNE,23,12.1,19.8,16,0.00,,SCT100,0.00,VWS V14.00,2013-04-23 20:06:00,
2013-04-23 13:11:00,74.3,25.2,29.91,NNE,29,12.1,19.8,16,0.00,,SCT100,0.00,VWS V14.00,2013-04-23 20:11:00,
2013-04-23 13:16:00,74.1,25.1,29.91,NNE,13,22.5,22.5,16,0.00,,SCT100,0.00,VWS V14.00,2013-04-23 20:16:00,
2013-04-23 13:21:00,74.1,25.1,29.91,North,9,8.7,22.5,16,0.00,,SCT100,0.00,VWS V14.00,2013-04-23 20:21:00,
2013-04-23 13:26:00,74.5,25.4,29.91,NNE,21,13.1,22.5,16,0.00,,SCT100,0.00,VWS V14.00,2013-04-23 20:26:00,
2013-04-23 13:31:00,75.0,25.8,29.91,North,357,6.0,22.5,16,0.00,,SCT100,0.00,VWS V14.00,2013-04-23 20:31:00,
2013-04-23 13:36:00,75.2,24.4,29.91,North,0,10.1,18.5,15,0.00,,SCT100,0.00,VWS V14.00,2013-04-23 20:36:00,
2013-04-23 13:41:00,74.8,25.7,29.91,NE,34,8.7,18.5,16,0.00,,SCT100,0.00,VWS V14.00,2013-04-23 20:41:00,
2013-04-23 13:46:00,74.7,25.5,29.91,NNE,32,6.0,19.1,16,0.00,,SCT100,0.00,VWS V14.00,2013-04-23 20:46:00,
2013-04-23 13:51:00,75.2,24.4,29.91,North,5,12.1,19.1,15,0.00,,SCT100,0.00,VWS V14.00,2013-04-23 20:51:00,
2013-04-23 13:56:00,75.0,25.8,29.91,NNE,20,11.4,19.8,16,0.00,,SCT100,0.00,VWS V14.00,2013-04-23 20:56:00,
2013-04-23 14:01:00,75.4,24.6,29.91,NE,36,4.0,19.8,15,0.00,,SCT100,0.00,VWS V14.00,2013-04-23 21:01:00,
2013-04-23 14:06:00,75.4,24.6,29.91,North,6,15.1,22.5,15,0.00,,SCT100,0.00,VWS V14.00,2013-04-23 21:06:00,
2013-04-23 14:11:00,75.6,24.7,29.91,NNE,29,9.4,22.5,15,0.00,,SCT100,0.00,VWS V14.00,2013-04-23 21:11:00,
2013-04-23 14:16:00,75.2,24.4,29.91,North,0,13.1,22.5,15,0.00,,SCT100,0.00,VWS V14.00,2013-04-23 21:16:00,
2013-04-23 14:21:00,75.7,24.9,29.91,NNE,16,18.5,22.5,15,0.00,,SCT100,0.00,VWS V14.00,2013-04-23 21:21:00,
2013-04-23 14:26:00,75.4,24.6,29.91,North,10,12.1,22.5,15,0.00,,SCT100,0.00,VWS V14.00,2013-04-23 21:26:00,
2013-04-23 14:31:00,75.6,24.7,29.91,NNW,342,6.0,22.5,15,0.00,,SCT100,0.00,VWS V14.00,2013-04-23 21:31:00,
2013-04-23 14:36:00,75.7,24.9,29.91,NE,47,19.8,19.8,15,0.00,,SCT100,0.00,VWS V14.00,2013-04-23 21:36:00,
2013-04-23 14:41:00,75.7,24.9,29.88,NE,40,19.1,19.8,15,0.00,,SCT100,0.00,VWS V14.00,2013-04-23 21:41:00,
2013-04-23 14:46:00,75.7,24.9,29.88,NNE,17,12.1,19.8,15,0.00,,SCT100,0.00,VWS V14.00,2013-04-23 21:46:00,
2013-04-23 14:51:00,75.7,24.9,29.88,NE,35,6.7,19.8,15,0.00,,SCT100,0.00,VWS V14.00,2013-04-23 21:51:00,
2013-04-23 14:56:00,76.1,25.1,29.88,North,6,13.1,19.8,15,0.00,,SCT100,0.00,VWS V14.00,2013-04-23 21:56:00,
2013-04-23 15:01:00,75.9,25.0,29.88,NNE,20,8.7,19.8,15,0.00,,SCT100,0.00,VWS V14.00,2013-04-23 22:01:00,
2013-04-23 15:06:00,75.7,24.9,29.88,NE,50,11.4,16.4,15,0.00,,SCT110,0.00,VWS V14.00,2013-04-23 22:06:00,
2013-04-23 15:11:00,75.9,25.0,29.88,NNE,28,8.7,19.8,15,0.00,,SCT110,0.00,VWS V14.00,2013-04-23 22:11:00,
2013-04-23 15:16:00,75.9,25.0,29.88,NE,47,6.0,19.8,15,0.00,,SCT110,0.00,VWS V14.00,2013-04-23 22:16:00,
2013-04-23 15:21:00,76.5,25.4,29.88,ESE,110,12.4,19.8,15,0.00,,SCT110,0.00,VWS V14.00,2013-04-23 22:21:00,
2013-04-23 15:26:00,76.8,25.7,29.88,NE,40,8.1,19.8,15,0.00,,SCT110,0.00,VWS V14.00,2013-04-23 22:26:00,
2013-04-23 15:31:00,76.3,25.3,29.88,NNE,17,16.4,19.8,15,0.00,,SCT110,0.00,VWS V14.00,2013-04-23 22:31:00,
2013-04-23 15:36:00,76.5,25.4,29.88,NE,34,11.4,15.8,15,0.00,,SCT110,0.00,VWS V14.00,2013-04-23 22:36:00,
2013-04-23 15:41:00,76.1,25.1,29.88,NE,36,16.4,22.5,15,0.00,,SCT110,0.00,VWS V14.00,2013-04-23 22:41:00,
2013-04-23 15:46:00,75.7,24.9,29.88,NNE,33,4.0,22.5,15,0.00,,SCT110,0.00,VWS V14.00,2013-04-23 22:46:00,
2013-04-23 15:51:00,76.8,25.7,29.88,NNE,28,15.8,22.5,15,0.00,,SCT110,0.00,VWS V14.00,2013-04-23 22:51:00,
2013-04-23 15:56:00,76.8,25.7,29.88,NE,38,8.1,22.5,15,0.00,,SCT110,0.00,VWS V14.00,2013-04-23 22:56:00,
2013-04-23 16:01:00,77.0,25.9,29.88,North,3,12.1,22.5,15,0.00,,SCT110,0.00,VWS V14.00,2013-04-23 23:01:00,
2013-04-23 16:06:00,77.2,26.0,29.88,NE,37,4.0,14.4,15,0.00,,SCT110,0.00,VWS V14.00,2013-04-23 23:06:00,
2013-04-23 16:11:00,77.0,25.9,29.85,NE,48,8.7,14.4,15,0.00,,SCT110,0.00,VWS V14.00,2013-04-23 23:11:00,
2013-04-23 16:16:00,76.8,25.7,29.85,NNE,33,6.0,14.4,15,0.00,,SCT110,0.00,VWS V14.00,2013-04-23 23:16:00,
2013-04-23 16:21:00,76.1,25.1,29.85,NE,37,9.4,18.5,15,0.00,,SCT110,0.00,VWS V14.00,2013-04-23 23:21:00,
2013-04-23 16:26:00,75.9,25.0,29.85,ENE,74,13.1,18.5,15,0.00,,SCT110,0.00,VWS V14.00,2013-04-23 23:26:00,
2013-04-23 16:31:00,75.9,25.0,29.85,East,83,12.4,18.5,15,0.00,,SCT110,0.00,VWS V14.00,2013-04-23 23:31:00,
2013-04-23 16:36:00,75.9,25.0,29.85,NNE,17,6.0,15.8,15,0.00,,SCT110,0.00,VWS V14.00,2013-04-23 23:36:00,
2013-04-23 16:41:00,75.9,25.0,29.85,NNE,14,6.7,15.8,15,0.00,,SCT110,0.00,VWS V14.00,2013-04-23 23:41:00,
2013-04-23 16:46:00,76.3,25.3,29.85,NNE,30,8.7,15.8,15,0.00,,SCT110,0.00,VWS V14.00,2013-04-23 23:46:00,
2013-04-23 16:51:00,76.5,25.4,29.85,ENE,74,9.4,15.8,15,0.00,,SCT110,0.00,VWS V14.00,2013-04-23 23:51:00,
2013-04-23 16:56:00,76.6,25.6,29.85,NE,45,6.0,15.8,15,0.00,,SCT110,0.00,VWS V14.00,2013-04-23 23:56:00,
2013-04-23 17:01:00,76.3,25.3,29.85,NE,48,10.1,15.8,15,0.00,,SCT110,0.00,VWS V14.00,2013-04-24 00:01:00,
2013-04-23 17:06:00,76.3,25.3,29.85,NNE,32,3.4,11.4,15,0.00,,SCT110,0.00,VWS V14.00,2013-04-24 00:06:00,
2013-04-23 17:11:00,76.5,25.4,29.85,NNE,23,7.4,15.1,15,0.00,,SCT110,0.00,VWS V14.00,2013-04-24 00:11:00,
2013-04-23 17:16:00,76.1,25.1,29.85,NE,34,8.1,15.1,15,0.00,,SCT110,0.00,VWS V14.00,2013-04-24 00:16:00,
2013-04-23 17:21:00,75.7,24.9,29.85,NNE,22,9.4,15.1,15,0.00,,SCT110,0.00,VWS V14.00,2013-04-24 00:21:00,
2013-04-23 17:26:00,75.7,24.9,29.85,NE,36,12.1,15.1,15,0.00,,SCT110,0.00,VWS V14.00,2013-04-24 00:26:00,
2013-04-23 17:31:00,76.1,25.1,29.85,NE,36,9.4,16.4,15,0.00,,SCT110,0.00,VWS V14.00,2013-04-24 00:31:00,
2013-04-23 17:36:00,75.7,24.9,29.85,NE,41,11.4,13.8,15,0.00,,SCT110,0.00,VWS V14.00,2013-04-24 00:36:00,
2013-04-23 17:41:00,75.6,24.7,29.85,ENE,76,8.7,13.8,15,0.00,,SCT110,0.00,VWS V14.00,2013-04-24 00:41:00,
2013-04-23 17:46:00,75.7,24.9,29.85,NE,56,12.4,13.8,15,0.00,,SCT110,0.00,VWS V14.00,2013-04-24 00:46:00,
2013-04-23 17:51:00,75.7,24.9,29.85,NNE,31,6.0,16.4,15,0.00,,SCT110,0.00,VWS V14.00,2013-04-24 00:51:00,
2013-04-23 17:56:00,75.4,24.6,29.85,NE,46,6.0,16.4,15,0.00,,SCT110,0.00,VWS V14.00,2013-04-24 00:56:00,
2013-04-23 18:01:00,75.2,24.4,29.85,NNE,31,6.0,16.4,15,0.00,,SCT110,0.00,VWS V14.00,2013-04-24 01:01:00,
2013-04-23 18:06:00,74.7,25.5,29.85,NE,48,11.4,13.1,16,0.00,,CLR,0.00,VWS V14.00,2013-04-24 01:06:00,
2013-04-23 18:11:00,74.3,25.2,29.85,North,10,8.1,13.1,16,0.00,,CLR,0.00,VWS V14.00,2013-04-24 01:11:00,
2013-04-23 18:16:00,74.1,25.1,29.85,NNE,17,4.7,13.1,16,0.00,,CLR,0.00,VWS V14.00,2013-04-24 01:16:00,
2013-04-23 18:21:00,74.1,25.1,29.85,ENE,58,8.1,13.1,16,0.00,,CLR,0.00,VWS V14.00,2013-04-24 01:21:00,
2013-04-23 18:26:00,73.8,24.8,29.85,NNE,26,8.1,13.1,16,0.00,,CLR,0.00,VWS V14.00,2013-04-24 01:26:00,
2013-04-23 18:31:00,73.4,24.5,29.85,NE,36,7.4,13.1,16,0.00,,CLR,0.00,VWS V14.00,2013-04-24 01:31:00,
2013-04-23 18:36:00,72.9,24.1,29.85,NNE,27,8.1,11.4,16,0.00,,CLR,0.00,VWS V14.00,2013-04-24 01:36:00,
2013-04-23 18:41:00,72.5,23.8,29.85,NNE,24,7.4,12.1,16,0.00,,CLR,0.00,VWS V14.00,2013-04-24 01:41:00,
2013-04-23 18:46:00,72.3,23.6,29.85,NNE,32,9.4,12.1,16,0.00,,CLR,0.00,VWS V14.00,2013-04-24 01:46:00,
2013-04-23 18:51:00,72.0,23.4,29.85,NNE,32,8.1,12.1,16,0.00,,CLR,0.00,VWS V14.00,2013-04-24 01:51:00,
2013-04-23 18:56:00,71.6,23.1,29.85,NNE,28,8.1,12.4,16,0.00,,CLR,0.00,VWS V14.00,2013-04-24 01:56:00,
2013-04-23 19:01:00,71.2,24.2,29.85,NNE,28,8.1,12.4,17,0.00,,CLR,0.00,VWS V14.00,2013-04-24 02:01:00,
2013-04-23 19:06:00,70.9,23.9,29.85,NNE,24,11.4,11.4,17,0.00,,CLR,0.00,VWS V14.00,2013-04-24 02:06:00,
2013-04-23 19:11:00,70.7,23.8,29.85,NE,42,8.7,11.4,17,0.00,,CLR,0.00,VWS V14.00,2013-04-24 02:11:00,
2013-04-23 19:16:00,70.3,23.5,29.85,NNE,30,7.4,12.4,17,0.00,,CLR,0.00,VWS V14.00,2013-04-24 02:16:00,
2013-04-23 19:21:00,70.0,23.2,29.85,NNE,32,5.4,12.4,17,0.00,,CLR,0.00,VWS V14.00,2013-04-24 02:21:00,
2013-04-23 19:26:00,69.6,22.9,29.85,NNE,31,8.1,12.4,17,0.00,,CLR,0.00,VWS V14.00,2013-04-24 02:26:00,
2013-04-23 19:32:00,69.1,22.5,29.85,NNE,31,4.7,12.4,17,0.00,,CLR,0.00,VWS V14.00,2013-04-24 02:32:00,
2013-04-23 19:37:00,68.7,22.2,29.85,NNE,31,4.0,6.0,17,0.00,,CLR,0.00,VWS V14.00,2013-04-24 02:37:00,
2013-04-23 19:42:00,68.2,21.7,29.85,NNE,30,3.4,6.0,17,0.00,,CLR,0.00,VWS V14.00,2013-04-24 02:42:00,
2013-04-23 19:47:00,67.8,21.5,29.85,NNE,29,4.0,6.0,17,0.00,,CLR,0.00,VWS V14.00,2013-04-24 02:47:00,
2013-04-23 19:52:00,67.3,21.0,29.85,NNE,29,0.0,6.0,17,0.00,,CLR,0.00,VWS V14.00,2013-04-24 02:52:00,
2013-04-23 19:57:00,66.7,20.6,29.85,NNE,29,0.0,6.0,17,0.00,,CLR,0.00,VWS V14.00,2013-04-24 02:57:00,
2013-04-23 19:58:00,60.1,17.7,29.85,NNE,29,4.0,6.0,19,0.00,,CLR,0.00,VWS V14.00,2013-04-24 02:58:00,
2013-04-23 19:59:00,60.1,17.7,29.85,NNE,29,5.4,6.0,19,0.00,,CLR,0.00,VWS V14.00,2013-04-24 02:59:00,
2013-04-23 20:00:00,59.9,17.6,29.85,NNE,29,6.0,6.0,19,0.00,,CLR,0.00,VWS V14.00,2013-04-24 03:00:00,
2013-04-23 20:01:00,59.9,17.6,29.85,NNE,29,5.4,6.0,19,0.00,,CLR,0.00,VWS V14.00,2013-04-24 03:01:00,
2013-04-23 20:02:00,66.0,21.3,29.85,NNE,29,0.0,3.4,18,0.00,,CLR,0.00,VWS V14.00,2013-04-24 03:02:00,
2013-04-23 20:03:00,59.9,17.6,29.85,NNE,29,6.0,6.0,19,0.00,,CLR,0.00,VWS V14.00,2013-04-24 03:03:00,
2013-04-23 20:04:00,59.9,17.6,29.85,NNE,29,6.0,6.0,19,0.00,,CLR,0.00,VWS V14.00,2013-04-24 03:04:00,
2013-04-23 20:05:00,59.7,17.4,29.85,NNE,29,4.7,6.0,19,0.00,,CLR,0.00,VWS V14.00,2013-04-24 03:05:00,
2013-04-23 20:06:00,59.7,17.4,29.85,SW,235,6.7,7.4,19,0.00,,CLR,0.00,VWS V14.00,2013-04-24 03:06:00,
2013-04-23 20:07:00,64.9,20.4,29.85,NNE,29,3.4,4.0,18,0.00,,CLR,0.00,VWS V14.00,2013-04-24 03:07:00,
2013-04-23 20:12:00,64.0,19.7,29.85,NNE,29,0.0,4.0,18,0.00,,CLR,0.00,VWS V14.00,2013-04-24 03:12:00,
2013-04-23 20:17:00,63.1,19.0,29.85,NNE,29,0.0,4.0,18,0.00,,CLR,0.00,VWS V14.00,2013-04-24 03:17:00,
2013-04-23 20:22:00,62.4,19.6,29.85,NNE,29,0.0,4.0,19,0.00,,CLR,0.00,VWS V14.00,2013-04-24 03:22:00,
2013-04-23 20:27:00,62.1,19.3,29.85,NNE,29,0.0,4.0,19,0.00,,CLR,0.00,VWS V14.00,2013-04-24 03:27:00,
2013-04-23 20:32:00,61.9,19.2,29.85,NNE,29,4.0,4.7,19,0.00,,CLR,0.00,VWS V14.00,2013-04-24 03:32:00,
2013-04-23 20:38:00,61.7,19.0,29.85,NNE,29,3.4,4.7,19,0.00,,CLR,0.00,VWS V14.00,2013-04-24 03:38:00,
2013-04-23 20:43:00,61.5,18.9,29.85,NNE,29,4.0,4.7,19,0.00,,CLR,0.00,VWS V14.00,2013-04-24 03:43:00,
2013-04-23 20:48:00,61.2,18.6,29.85,NNE,29,5.4,6.0,19,0.00,,CLR,0.00,VWS V14.00,2013-04-24 03:48:00,
2013-04-23 20:53:00,60.8,18.3,29.85,NNE,29,5.4,6.0,19,0.00,,CLR,0.00,VWS V14.00,2013-04-24 03:53:00,
2013-04-23 20:58:00,60.3,17.9,29.85,NNE,29,5.4,6.0,19,0.00,,CLR,0.00,VWS V14.00,2013-04-24 03:58:00,
2013-04-23 21:05:00,59.9,17.6,29.85,NNE,29,4.7,6.0,19,0.00,,CLR,0.00,VWS V14.00,2013-04-24 04:05:00,
2013-04-23 21:10:00,59.7,17.4,29.85,SW,235,4.7,7.4,19,0.00,,CLR,0.00,VWS V14.00,2013-04-24 04:10:00,
2013-04-23 21:15:00,59.5,17.3,29.85,SW,235,7.4,8.1,19,0.00,,CLR,0.00,VWS V14.00,2013-04-24 04:15:00,
2013-04-23 21:20:00,59.2,17.0,29.85,WSW,250,8.1,8.1,19,0.00,,CLR,0.00,VWS V14.00,2013-04-24 04:20:00,
2013-04-23 21:25:00,58.8,16.7,29.88,WSW,242,6.0,9.4,19,0.00,,CLR,0.00,VWS V14.00,2013-04-24 04:25:00,
2013-04-23 21:30:00,58.6,16.5,29.88,WSW,247,8.1,9.4,19,0.00,,CLR,0.00,VWS V14.00,2013-04-24 04:30:00,
2013-04-23 21:35:00,58.6,16.5,29.88,WSW,245,8.7,8.7,19,0.00,,CLR,0.00,VWS V14.00,2013-04-24 04:35:00,
2013-04-23 21:40:00,58.8,16.7,29.85,WSW,247,6.0,9.4,19,0.00,,CLR,0.00,VWS V14.00,2013-04-24 04:40:00,
2013-04-23 21:45:00,59.0,16.8,29.85,SW,236,8.7,9.4,19,0.00,,CLR,0.00,VWS V14.00,2013-04-24 04:45:00,
2013-04-23 21:50:00,59.2,17.0,29.85,SW,231,8.1,9.4,19,0.00,,CLR,0.00,VWS V14.00,2013-04-24 04:50:00,
2013-04-23 21:55:00,59.2,17.0,29.85,SW,231,5.4,9.4,19,0.00,,CLR,0.00,VWS V14.00,2013-04-24 04:55:00,
2013-04-23 22:00:00,59.2,17.0,29.85,SW,231,6.0,9.4,19,0.00,,CLR,0.00,VWS V14.00,2013-04-24 05:00:00,
2013-04-23 22:05:00,59.4,17.1,29.85,SW,222,4.7,6.7,19,0.00,,CLR,0.00,VWS V14.00,2013-04-24 05:05:00,
2013-04-23 22:10:00,59.2,17.0,29.88,SW,227,8.1,9.4,19,0.00,,CLR,0.00,VWS V14.00,2013-04-24 05:10:00,
2013-04-23 22:15:00,59.2,20.4,29.88,SW,219,8.1,9.4,22,0.00,,CLR,0.00,VWS V14.00,2013-04-24 05:15:00,
2013-04-23 22:20:00,59.4,20.5,29.88,SW,232,8.7,9.4,22,0.00,,CLR,0.00,VWS V14.00,2013-04-24 05:20:00,
2013-04-23 22:25:00,59.4,20.5,29.88,SW,231,5.4,9.4,22,0.00,,CLR,0.00,VWS V14.00,2013-04-24 05:25:00,
2013-04-23 22:30:00,59.4,20.5,29.88,South,175,5.4,9.4,22,0.00,,CLR,0.00,VWS V14.00,2013-04-24 05:30:00,
2013-04-23 22:35:00,59.2,20.4,29.88,SSE,147,6.7,6.7,22,0.00,,CLR,0.00,VWS V14.00,2013-04-24 05:35:00,
2013-04-23 22:40:00,59.0,22.3,29.88,South,185,4.7,8.7,24,0.00,,CLR,0.00,VWS V14.00,2013-04-24 05:40:00,
2013-04-23 22:45:00,59.2,22.4,29.88,WSW,255,10.7,10.7,24,0.00,,CLR,0.00,VWS V14.00,2013-04-24 05:45:00,
2013-04-23 22:50:00,59.5,22.7,29.88,SSW,208,8.1,10.7,24,0.00,,CLR,0.00,VWS V14.00,2013-04-24 05:50:00,
2013-04-23 22:55:00,59.7,22.9,29.88,SW,216,5.4,10.7,24,0.00,,CLR,0.00,VWS V14.00,2013-04-24 05:55:00,
2013-04-23 23:00:00,59.7,22.9,29.88,SW,216,5.4,10.7,24,0.00,,CLR,0.00,VWS V14.00,2013-04-24 06:00:00,
2013-04-23 23:05:00,59.4,22.6,29.88,SW,216,4.0,4.0,24,0.00,,CLR,0.00,VWS V14.00,2013-04-24 06:05:00,
2013-04-23 23:10:00,58.8,23.1,29.85,SW,216,4.0,4.7,25,0.00,,CLR,0.00,VWS V14.00,2013-04-24 06:10:00,
2013-04-23 23:15:00,58.3,22.6,29.85,SW,216,4.0,6.0,25,0.00,,CLR,0.00,VWS V14.00,2013-04-24 06:15:00,
2013-04-23 23:20:00,57.9,22.3,29.85,SW,216,4.7,8.7,25,0.00,,CLR,0.00,VWS V14.00,2013-04-24 06:20:00,
2013-04-23 23:25:00,57.7,22.2,29.85,SW,216,5.4,8.7,25,0.00,,CLR,0.00,VWS V14.00,2013-04-24 06:25:00,
2013-04-23 23:30:00,57.6,23.0,29.85,SW,216,6.0,8.7,26,0.00,,CLR,0.00,VWS V14.00,2013-04-24 06:30:00,
2013-04-23 23:35:00,57.4,22.8,29.85,SW,216,6.0,6.0,26,0.00,,CLR,0.00,VWS V14.00,2013-04-24 06:35:00,
2013-04-23 23:40:00,57.2,23.5,29.85,SW,216,4.7,6.0,27,0.00,,CLR,0.00,VWS V14.00,2013-04-24 06:40:00,
2013-04-23 23:45:00,57.2,24.4,29.85,SW,216,5.4,6.0,28,0.00,,CLR,0.00,VWS V14.00,2013-04-24 06:45:00,
2013-04-23 23:50:00,57.0,25.1,29.85,SW,216,4.0,6.0,29,0.00,,CLR,0.00,VWS V14.00,2013-04-24 06:50:00,
2013-04-23 23:55:00,56.8,24.9,29.85,SW,216,5.4,6.0,29,0.00,,CLR,0.00,VWS V14.00,2013-04-24 06:55:00,